#datetime,building,power
2023-06-20T00:00:00,75s,1.18
2023-06-20T00:01:00,75s,1.19
2023-06-20T00:02:00,75s,1.19
2023-06-20T00:03:00,75s,1.26
2023-06-20T00:04:00,75s,1.26
2023-06-20T00:05:00,75s,1.29
2023-06-20T00:06:00,75s,1.12
2023-06-20T00:07:00,75s,1.19
2023-06-20T00:08:00,75s,1.30
2023-06-20T00:09:00,75s,1.29
2023-06-20T00:10:00,75s,1.13
2023-06-20T00:11:00,75s,1.14
2023-06-20T00:12:00,75s,1.13
2023-06-20T00:13:00,75s,1.13
2023-06-20T00:14:00,75s,1.16
2023-06-20T00:15:00,75s,1.16
2023-06-20T00:16:00,75s,1.15
2023-06-20T00:17:00,75s,1.07
2023-06-20T00:18:00,75s,1.07
2023-06-20T00:19:00,75s,1.16
2023-06-20T00:20:00,75s,1.09
2023-06-20T00:21:00,75s,1.00
2023-06-20T00:22:00,75s,0.99
2023-06-20T00:23:00,75s,1.35
2023-06-20T00:24:00,75s,0.99
2023-06-20T00:25:00,75s,1.08
2023-06-20T00:26:00,75s,1.13
2023-06-20T00:27:00,75s,1.14
2023-06-20T00:28:00,75s,1.06
2023-06-20T00:29:00,75s,1.16
2023-06-20T00:30:00,75s,1.05
2023-06-20T00:31:00,75s,1.09
2023-06-20T00:32:00,75s,1.04
2023-06-20T00:33:00,75s,1.05
2023-06-20T00:34:00,75s,1.14
2023-06-20T00:35:00,75s,1.03
2023-06-20T00:36:00,75s,1.05
2023-06-20T00:37:00,75s,1.03
2023-06-20T00:38:00,75s,1.03
2023-06-20T00:39:00,75s,0.94
2023-06-20T00:40:00,75s,0.94
2023-06-20T00:41:00,75s,0.94
2023-06-20T00:42:00,75s,0.94
2023-06-20T00:43:00,75s,0.95
2023-06-20T00:44:00,75s,0.96
2023-06-20T00:45:00,75s,0.96
2023-06-20T00:46:00,75s,0.95
2023-06-20T00:47:00,75s,0.95
2023-06-20T00:48:00,75s,1.26
2023-06-20T00:49:00,75s,1.03
2023-06-20T00:50:00,75s,1.03
2023-06-20T00:51:00,75s,1.04
2023-06-20T00:52:00,75s,1.03
2023-06-20T00:53:00,75s,1.02
2023-06-20T00:54:00,75s,0.95
2023-06-20T00:55:00,75s,0.97
2023-06-20T00:56:00,75s,1.10
2023-06-20T00:57:00,75s,1.10
2023-06-20T00:58:00,75s,1.10
2023-06-20T00:59:00,75s,1.18
2023-06-20T01:00:00,75s,1.18
2023-06-20T01:01:00,75s,1.18
2023-06-20T01:02:00,75s,1.17
2023-06-20T01:03:00,75s,1.26
2023-06-20T01:04:00,75s,1.26
2023-06-20T01:05:00,75s,1.09
2023-06-20T01:06:00,75s,1.15
2023-06-20T01:07:00,75s,1.18
2023-06-20T01:08:00,75s,1.11
2023-06-20T01:09:00,75s,1.07
2023-06-20T01:10:00,75s,1.15
2023-06-20T01:11:00,75s,1.14
2023-06-20T01:12:00,75s,1.14
2023-06-20T01:13:00,75s,1.14
2023-06-20T01:14:00,75s,1.10
2023-06-20T01:15:00,75s,1.35
2023-06-20T01:16:00,75s,1.10
2023-06-20T01:17:00,75s,1.11
2023-06-20T01:18:00,75s,1.19
2023-06-20T01:19:00,75s,1.26
2023-06-20T01:20:00,75s,1.20
2023-06-20T01:21:00,75s,1.16
2023-06-20T01:22:00,75s,1.08
2023-06-20T01:23:00,75s,1.07
2023-06-20T01:24:00,75s,1.07
2023-06-20T01:25:00,75s,1.18
2023-06-20T01:26:00,75s,1.20
2023-06-20T01:27:00,75s,1.10
2023-06-20T01:28:00,75s,1.09
2023-06-20T01:29:00,75s,1.11
2023-06-20T01:30:00,75s,1.18
2023-06-20T01:31:00,75s,1.18
2023-06-20T01:32:00,75s,1.25
2023-06-20T01:33:00,75s,1.19
2023-06-20T01:34:00,75s,1.01
2023-06-20T01:35:00,75s,0.98
2023-06-20T01:36:00,75s,1.00
2023-06-20T01:37:00,75s,1.00
2023-06-20T01:38:00,75s,0.99
2023-06-20T01:39:00,75s,1.00
2023-06-20T01:40:00,75s,0.99
2023-06-20T01:41:00,75s,0.98
2023-06-20T01:42:00,75s,1.08
2023-06-20T01:43:00,75s,1.12
2023-06-20T01:44:00,75s,1.21
2023-06-20T01:45:00,75s,1.11
2023-06-20T01:46:00,75s,1.04
2023-06-20T01:47:00,75s,1.03
2023-06-20T01:48:00,75s,1.03
2023-06-20T01:49:00,75s,1.04
2023-06-20T01:50:00,75s,1.06
2023-06-20T01:51:00,75s,1.04
2023-06-20T01:52:00,75s,1.03
2023-06-20T01:53:00,75s,1.11
2023-06-20T01:54:00,75s,1.11
2023-06-20T01:55:00,75s,1.31
2023-06-20T01:56:00,75s,1.22
2023-06-20T01:57:00,75s,1.26
2023-06-20T01:58:00,75s,1.15
2023-06-20T01:59:00,75s,1.14
2023-06-20T02:00:00,75s,1.10
2023-06-20T02:01:00,75s,1.09
2023-06-20T02:02:00,75s,1.09
2023-06-20T02:03:00,75s,1.09
2023-06-20T02:04:00,75s,1.06
2023-06-20T02:05:00,75s,1.07
2023-06-20T02:06:00,75s,1.16
2023-06-20T02:07:00,75s,1.17
2023-06-20T02:08:00,75s,1.17
2023-06-20T02:09:00,75s,1.15
2023-06-20T02:10:00,75s,1.08
2023-06-20T02:11:00,75s,1.10
2023-06-20T02:12:00,75s,1.09
2023-06-20T02:13:00,75s,1.09
2023-06-20T02:14:00,75s,1.09
2023-06-20T02:15:00,75s,1.09
2023-06-20T02:16:00,75s,1.19
2023-06-20T02:17:00,75s,1.17
2023-06-20T02:18:00,75s,1.17
2023-06-20T02:19:00,75s,1.17
2023-06-20T02:20:00,75s,1.14
2023-06-20T02:21:00,75s,1.17
2023-06-20T02:22:00,75s,1.09
2023-06-20T02:23:00,75s,1.07
2023-06-20T02:24:00,75s,1.18
2023-06-20T02:25:00,75s,1.18
2023-06-20T02:26:00,75s,10.38
2023-06-20T02:27:00,75s,10.37
2023-06-20T02:28:00,75s,10.29
2023-06-20T02:29:00,75s,10.29
2023-06-20T02:30:00,75s,10.16
2023-06-20T02:31:00,75s,1.22
2023-06-20T02:32:00,75s,1.23
2023-06-20T02:33:00,75s,1.08
2023-06-20T02:34:00,75s,0.99
2023-06-20T02:35:00,75s,0.96
2023-06-20T02:36:00,75s,1.29
2023-06-20T02:37:00,75s,1.07
2023-06-20T02:38:00,75s,0.96
2023-06-20T02:39:00,75s,1.03
2023-06-20T02:40:00,75s,1.00
2023-06-20T02:41:00,75s,1.00
2023-06-20T02:42:00,75s,0.93
2023-06-20T02:43:00,75s,0.93
2023-06-20T02:44:00,75s,0.92
2023-06-20T02:45:00,75s,1.01
2023-06-20T02:46:00,75s,0.97
2023-06-20T02:47:00,75s,0.90
2023-06-20T02:48:00,75s,0.89
2023-06-20T02:49:00,75s,0.89
2023-06-20T02:50:00,75s,0.88
2023-06-20T02:51:00,75s,1.20
2023-06-20T02:52:00,75s,0.88
2023-06-20T02:53:00,75s,0.88
2023-06-20T02:54:00,75s,0.99
2023-06-20T02:55:00,75s,1.06
2023-06-20T02:56:00,75s,1.06
2023-06-20T02:57:00,75s,1.07
2023-06-20T02:58:00,75s,1.06
2023-06-20T02:59:00,75s,1.04
2023-06-20T03:00:00,75s,1.06
2023-06-20T03:01:00,75s,1.39
2023-06-20T03:02:00,75s,1.11
2023-06-20T03:03:00,75s,1.03
2023-06-20T03:04:00,75s,1.46
2023-06-20T03:05:00,75s,1.08
2023-06-20T03:06:00,75s,1.00
2023-06-20T03:07:00,75s,1.01
2023-06-20T03:08:00,75s,1.01
2023-06-20T03:09:00,75s,1.08
2023-06-20T03:10:00,75s,1.08
2023-06-20T03:11:00,75s,1.08
2023-06-20T03:12:00,75s,1.09
2023-06-20T03:13:00,75s,1.51
2023-06-20T03:14:00,75s,1.08
2023-06-20T03:15:00,75s,1.08
2023-06-20T03:16:00,75s,1.14
2023-06-20T03:17:00,75s,1.13
2023-06-20T03:18:00,75s,1.21
2023-06-20T03:19:00,75s,1.21
2023-06-20T03:20:00,75s,1.23
2023-06-20T03:21:00,75s,1.22
2023-06-20T03:22:00,75s,1.20
2023-06-20T03:23:00,75s,1.58
2023-06-20T03:24:00,75s,1.23
2023-06-20T03:25:00,75s,1.51
2023-06-20T03:26:00,75s,1.23
2023-06-20T03:27:00,75s,1.25
2023-06-20T03:28:00,75s,1.22
2023-06-20T03:29:00,75s,1.23
2023-06-20T03:30:00,75s,1.22
2023-06-20T03:31:00,75s,1.23
2023-06-20T03:32:00,75s,1.36
2023-06-20T03:33:00,75s,1.27
2023-06-20T03:34:00,75s,1.25
2023-06-20T03:35:00,75s,1.07
2023-06-20T03:36:00,75s,1.08
2023-06-20T03:37:00,75s,1.46
2023-06-20T03:38:00,75s,1.02
2023-06-20T03:39:00,75s,0.99
2023-06-20T03:40:00,75s,0.99
2023-06-20T03:41:00,75s,0.99
2023-06-20T03:42:00,75s,0.99
2023-06-20T03:43:00,75s,1.00
2023-06-20T03:44:00,75s,1.14
2023-06-20T03:45:00,75s,1.19
2023-06-20T03:46:00,75s,1.16
2023-06-20T03:47:00,75s,1.00
2023-06-20T03:48:00,75s,1.00
2023-06-20T03:49:00,75s,1.23
2023-06-20T03:50:00,75s,0.99
2023-06-20T03:51:00,75s,1.02
2023-06-20T03:52:00,75s,1.01
2023-06-20T03:53:00,75s,1.10
2023-06-20T03:54:00,75s,1.10
2023-06-20T03:55:00,75s,1.17
2023-06-20T03:56:00,75s,1.20
2023-06-20T03:57:00,75s,1.25
2023-06-20T03:58:00,75s,1.19
2023-06-20T03:59:00,75s,1.08
2023-06-20T04:00:00,75s,1.09
2023-06-20T04:01:00,75s,1.10
2023-06-20T04:02:00,75s,1.00
2023-06-20T04:03:00,75s,1.05
2023-06-20T04:04:00,75s,1.05
2023-06-20T04:05:00,75s,1.08
2023-06-20T04:06:00,75s,1.49
2023-06-20T04:07:00,75s,1.14
2023-06-20T04:08:00,75s,1.20
2023-06-20T04:09:00,75s,1.12
2023-06-20T04:10:00,75s,1.12
2023-06-20T04:11:00,75s,1.04
2023-06-20T04:12:00,75s,1.05
2023-06-20T04:13:00,75s,1.37
2023-06-20T04:14:00,75s,1.05
2023-06-20T04:15:00,75s,1.04
2023-06-20T04:16:00,75s,1.04
2023-06-20T04:17:00,75s,1.20
2023-06-20T04:18:00,75s,1.23
2023-06-20T04:19:00,75s,1.11
2023-06-20T04:20:00,75s,1.12
2023-06-20T04:21:00,75s,1.26
2023-06-20T04:22:00,75s,1.10
2023-06-20T04:23:00,75s,1.13
2023-06-20T04:24:00,75s,1.12
2023-06-20T04:25:00,75s,1.22
2023-06-20T04:26:00,75s,1.14
2023-06-20T04:27:00,75s,1.13
2023-06-20T04:28:00,75s,1.12
2023-06-20T04:29:00,75s,1.13
2023-06-20T04:30:00,75s,1.21
2023-06-20T04:31:00,75s,1.22
2023-06-20T04:32:00,75s,1.17
2023-06-20T04:33:00,75s,1.12
2023-06-20T04:34:00,75s,1.46
2023-06-20T04:35:00,75s,1.02
2023-06-20T04:36:00,75s,1.03
2023-06-20T04:37:00,75s,1.01
2023-06-20T04:38:00,75s,1.03
2023-06-20T04:39:00,75s,1.02
2023-06-20T04:40:00,75s,1.04
2023-06-20T04:41:00,75s,1.02
2023-06-20T04:42:00,75s,0.97
2023-06-20T04:43:00,75s,0.98
2023-06-20T04:44:00,75s,0.98
2023-06-20T04:45:00,75s,0.98
2023-06-20T04:46:00,75s,0.96
2023-06-20T04:47:00,75s,1.03
2023-06-20T04:48:00,75s,1.03
2023-06-20T04:49:00,75s,1.39
2023-06-20T04:50:00,75s,1.53
2023-06-20T04:51:00,75s,1.00
2023-06-20T04:52:00,75s,1.10
2023-06-20T04:53:00,75s,1.10
2023-06-20T04:54:00,75s,1.11
2023-06-20T04:55:00,75s,1.09
2023-06-20T04:56:00,75s,1.10
2023-06-20T04:57:00,75s,1.08
2023-06-20T04:58:00,75s,1.18
2023-06-20T04:59:00,75s,1.17
2023-06-20T05:00:00,75s,1.17
2023-06-20T05:01:00,75s,1.07
2023-06-20T05:02:00,75s,1.48
2023-06-20T05:03:00,75s,0.98
2023-06-20T05:04:00,75s,1.02
2023-06-20T05:05:00,75s,0.98
2023-06-20T05:06:00,75s,0.95
2023-06-20T05:07:00,75s,0.95
2023-06-20T05:08:00,75s,0.96
2023-06-20T05:09:00,75s,0.96
2023-06-20T05:10:00,75s,0.97
2023-06-20T05:11:00,75s,1.02
2023-06-20T05:12:00,75s,1.09
2023-06-20T05:13:00,75s,1.03
2023-06-20T05:14:00,75s,1.20
2023-06-20T05:15:00,75s,0.94
2023-06-20T05:16:00,75s,1.03
2023-06-20T05:17:00,75s,1.38
2023-06-20T05:18:00,75s,1.03
2023-06-20T05:19:00,75s,0.99
2023-06-20T05:20:00,75s,0.96
2023-06-20T05:21:00,75s,1.12
2023-06-20T05:22:00,75s,1.15
2023-06-20T05:23:00,75s,1.22
2023-06-20T05:24:00,75s,1.21
2023-06-20T05:25:00,75s,1.21
2023-06-20T05:26:00,75s,1.48
2023-06-20T05:27:00,75s,1.18
2023-06-20T05:28:00,75s,1.13
2023-06-20T05:29:00,75s,1.17
2023-06-20T05:30:00,75s,1.12
2023-06-20T05:31:00,75s,1.10
2023-06-20T05:32:00,75s,1.10
2023-06-20T05:33:00,75s,1.07
2023-06-20T05:34:00,75s,1.06
2023-06-20T05:35:00,75s,1.16
2023-06-20T05:36:00,75s,1.15
2023-06-20T05:37:00,75s,1.39
2023-06-20T05:38:00,75s,1.06
2023-06-20T05:39:00,75s,1.07
2023-06-20T05:40:00,75s,1.07
2023-06-20T05:41:00,75s,1.07
2023-06-20T05:42:00,75s,1.08
2023-06-20T05:43:00,75s,1.07
2023-06-20T05:44:00,75s,1.14
2023-06-20T05:45:00,75s,1.14
2023-06-20T05:46:00,75s,1.23
2023-06-20T05:47:00,75s,1.16
2023-06-20T05:48:00,75s,1.48
2023-06-20T05:49:00,75s,0.98
2023-06-20T05:50:00,75s,1.00
2023-06-20T05:51:00,75s,1.09
2023-06-20T05:52:00,75s,1.05
2023-06-20T05:53:00,75s,1.05
2023-06-20T05:54:00,75s,1.33
2023-06-20T05:55:00,75s,1.05
2023-06-20T05:56:00,75s,1.42
2023-06-20T05:57:00,75s,1.20
2023-06-20T05:58:00,75s,1.28
2023-06-20T05:59:00,75s,1.12
2023-06-20T06:00:00,75s,1.29
2023-06-20T06:01:00,75s,1.84
2023-06-20T06:02:00,75s,3.28
2023-06-20T06:03:00,75s,3.35
2023-06-20T06:04:00,75s,3.39
2023-06-20T06:05:00,75s,2.76
2023-06-20T06:06:00,75s,2.80
2023-06-20T06:07:00,75s,2.56
2023-06-20T06:08:00,75s,2.75
2023-06-20T06:09:00,75s,2.70
2023-06-20T06:10:00,75s,2.71
2023-06-20T06:11:00,75s,2.41
2023-06-20T06:12:00,75s,2.78
2023-06-20T06:13:00,75s,2.42
2023-06-20T06:14:00,75s,2.77
2023-06-20T06:15:00,75s,2.40
2023-06-20T06:16:00,75s,2.40
2023-06-20T06:17:00,75s,2.39
2023-06-20T06:18:00,75s,2.75
2023-06-20T06:19:00,75s,2.38
2023-06-20T06:20:00,75s,2.89
2023-06-20T06:21:00,75s,2.56
2023-06-20T06:22:00,75s,2.71
2023-06-20T06:23:00,75s,2.62
2023-06-20T06:24:00,75s,2.61
2023-06-20T06:25:00,75s,2.55
2023-06-20T06:26:00,75s,2.53
2023-06-20T06:27:00,75s,2.53
2023-06-20T06:28:00,75s,2.63
2023-06-20T06:29:00,75s,2.62
2023-06-20T06:30:00,75s,2.52
2023-06-20T06:31:00,75s,2.53
2023-06-20T06:32:00,75s,2.68
2023-06-20T06:33:00,75s,2.67
2023-06-20T06:34:00,75s,2.65
2023-06-20T06:35:00,75s,2.61
2023-06-20T06:36:00,75s,2.61
2023-06-20T06:37:00,75s,2.59
2023-06-20T06:38:00,75s,2.64
2023-06-20T06:39:00,75s,2.63
2023-06-20T06:40:00,75s,12.86
2023-06-20T06:41:00,75s,12.74
2023-06-20T06:42:00,75s,12.73
2023-06-20T06:43:00,75s,12.76
2023-06-20T06:44:00,75s,12.82
2023-06-20T06:45:00,75s,12.81
2023-06-20T06:46:00,75s,12.82
2023-06-20T06:47:00,75s,12.70
2023-06-20T06:48:00,75s,12.72
2023-06-20T06:49:00,75s,12.68
2023-06-20T06:50:00,75s,12.88
2023-06-20T06:51:00,75s,12.84
2023-06-20T06:52:00,75s,2.65
2023-06-20T06:53:00,75s,2.59
2023-06-20T06:54:00,75s,2.49
2023-06-20T06:55:00,75s,2.57
2023-06-20T06:56:00,75s,2.56
2023-06-20T06:57:00,75s,2.61
2023-06-20T06:58:00,75s,2.51
2023-06-20T06:59:00,75s,2.42
2023-06-20T07:00:00,75s,2.42
2023-06-20T07:01:00,75s,2.41
2023-06-20T07:02:00,75s,12.70
2023-06-20T07:03:00,75s,12.68
2023-06-20T07:04:00,75s,12.67
2023-06-20T07:05:00,75s,12.63
2023-06-20T07:06:00,75s,21.45
2023-06-20T07:07:00,75s,21.38
2023-06-20T07:08:00,75s,21.32
2023-06-20T07:09:00,75s,21.22
2023-06-20T07:10:00,75s,21.39
2023-06-20T07:11:00,75s,12.73
2023-06-20T07:12:00,75s,12.72
2023-06-20T07:13:00,75s,12.74
2023-06-20T07:14:00,75s,12.71
2023-06-20T07:15:00,75s,12.71
2023-06-20T07:16:00,75s,12.64
2023-06-20T07:17:00,75s,12.66
2023-06-20T07:18:00,75s,12.66
2023-06-20T07:19:00,75s,12.67
2023-06-20T07:20:00,75s,12.80
2023-06-20T07:21:00,75s,12.79
2023-06-20T07:22:00,75s,2.56
2023-06-20T07:23:00,75s,2.57
2023-06-20T07:24:00,75s,2.87
2023-06-20T07:25:00,75s,2.68
2023-06-20T07:26:00,75s,2.69
2023-06-20T07:27:00,75s,2.69
2023-06-20T07:28:00,75s,2.69
2023-06-20T07:29:00,75s,2.59
2023-06-20T07:30:00,75s,2.58
2023-06-20T07:31:00,75s,12.71
2023-06-20T07:32:00,75s,12.81
2023-06-20T07:33:00,75s,12.83
2023-06-20T07:34:00,75s,12.81
2023-06-20T07:35:00,75s,12.79
2023-06-20T07:36:00,75s,12.87
2023-06-20T07:37:00,75s,12.88
2023-06-20T07:38:00,75s,12.86
2023-06-20T07:39:00,75s,12.87
2023-06-20T07:40:00,75s,12.82
2023-06-20T07:41:00,75s,12.89
2023-06-20T07:42:00,75s,12.80
2023-06-20T07:43:00,75s,13.05
2023-06-20T07:44:00,75s,12.83
2023-06-20T07:45:00,75s,12.84
2023-06-20T07:46:00,75s,12.79
2023-06-20T07:47:00,75s,12.94
2023-06-20T07:48:00,75s,12.92
2023-06-20T07:49:00,75s,12.99
2023-06-20T07:50:00,75s,12.89
2023-06-20T07:51:00,75s,2.68
2023-06-20T07:52:00,75s,2.66
2023-06-20T07:53:00,75s,2.66
2023-06-20T07:54:00,75s,2.66
2023-06-20T07:55:00,75s,2.66
2023-06-20T07:56:00,75s,2.66
2023-06-20T07:57:00,75s,2.73
2023-06-20T07:58:00,75s,2.64
2023-06-20T07:59:00,75s,2.59
2023-06-20T08:00:00,75s,12.97
2023-06-20T08:01:00,75s,12.91
2023-06-20T08:02:00,75s,13.20
2023-06-20T08:03:00,75s,13.34
2023-06-20T08:04:00,75s,13.39
2023-06-20T08:05:00,75s,13.39
2023-06-20T08:06:00,75s,13.38
2023-06-20T08:07:00,75s,13.40
2023-06-20T08:08:00,75s,13.55
2023-06-20T08:09:00,75s,13.58
2023-06-20T08:10:00,75s,19.16
2023-06-20T08:11:00,75s,19.13
2023-06-20T08:12:00,75s,19.00
2023-06-20T08:13:00,75s,19.07
2023-06-20T08:14:00,75s,19.08
2023-06-20T08:15:00,75s,19.16
2023-06-20T08:16:00,75s,19.07
2023-06-20T08:17:00,75s,19.06
2023-06-20T08:18:00,75s,19.48
2023-06-20T08:19:00,75s,19.61
2023-06-20T08:20:00,75s,19.36
2023-06-20T08:21:00,75s,20.14
2023-06-20T08:22:00,75s,21.92
2023-06-20T08:23:00,75s,25.37
2023-06-20T08:24:00,75s,25.06
2023-06-20T08:25:00,75s,25.41
2023-06-20T08:26:00,75s,25.37
2023-06-20T08:27:00,75s,25.26
2023-06-20T08:28:00,75s,25.40
2023-06-20T08:29:00,75s,25.41
2023-06-20T08:30:00,75s,25.41
2023-06-20T08:31:00,75s,25.54
2023-06-20T08:32:00,75s,25.57
2023-06-20T08:33:00,75s,25.69
2023-06-20T08:34:00,75s,25.72
2023-06-20T08:35:00,75s,25.64
2023-06-20T08:36:00,75s,25.79
2023-06-20T08:37:00,75s,25.78
2023-06-20T08:38:00,75s,25.91
2023-06-20T08:39:00,75s,25.81
2023-06-20T08:40:00,75s,25.57
2023-06-20T08:41:00,75s,26.00
2023-06-20T08:42:00,75s,26.39
2023-06-20T08:43:00,75s,26.02
2023-06-20T08:44:00,75s,25.22
2023-06-20T08:45:00,75s,25.25
2023-06-20T08:46:00,75s,25.34
2023-06-20T08:47:00,75s,25.23
2023-06-20T08:48:00,75s,25.30
2023-06-20T08:49:00,75s,25.47
2023-06-20T08:50:00,75s,25.50
2023-06-20T08:51:00,75s,25.49
2023-06-20T08:52:00,75s,25.67
2023-06-20T08:53:00,75s,25.59
2023-06-20T08:54:00,75s,25.40
2023-06-20T08:55:00,75s,24.81
2023-06-20T08:56:00,75s,25.49
2023-06-20T08:57:00,75s,25.44
2023-06-20T08:58:00,75s,25.45
2023-06-20T08:59:00,75s,25.34
2023-06-20T09:00:00,75s,25.41
2023-06-20T09:01:00,75s,25.35
2023-06-20T09:02:00,75s,23.82
2023-06-20T09:03:00,75s,22.39
2023-06-20T09:04:00,75s,22.00
2023-06-20T09:05:00,75s,20.28
2023-06-20T09:06:00,75s,19.46
2023-06-20T09:07:00,75s,19.52
2023-06-20T09:08:00,75s,19.55
2023-06-20T09:09:00,75s,19.48
2023-06-20T09:10:00,75s,19.45
2023-06-20T09:11:00,75s,20.61
2023-06-20T09:12:00,75s,19.58
2023-06-20T09:13:00,75s,19.70
2023-06-20T09:14:00,75s,20.01
2023-06-20T09:15:00,75s,21.70
2023-06-20T09:16:00,75s,23.39
2023-06-20T09:17:00,75s,24.99
2023-06-20T09:18:00,75s,25.83
2023-06-20T09:19:00,75s,25.93
2023-06-20T09:20:00,75s,26.00
2023-06-20T09:21:00,75s,25.98
2023-06-20T09:22:00,75s,26.02
2023-06-20T09:23:00,75s,25.94
2023-06-20T09:24:00,75s,25.97
2023-06-20T09:25:00,75s,25.97
2023-06-20T09:26:00,75s,25.97
2023-06-20T09:27:00,75s,26.03
2023-06-20T09:28:00,75s,26.04
2023-06-20T09:29:00,75s,25.82
2023-06-20T09:30:00,75s,26.15
2023-06-20T09:31:00,75s,26.07
2023-06-20T09:32:00,75s,26.04
2023-06-20T09:33:00,75s,26.09
2023-06-20T09:34:00,75s,26.06
2023-06-20T09:35:00,75s,26.01
2023-06-20T09:36:00,75s,26.24
2023-06-20T09:37:00,75s,26.29
2023-06-20T09:38:00,75s,26.07
2023-06-20T09:39:00,75s,26.29
2023-06-20T09:40:00,75s,26.34
2023-06-20T09:41:00,75s,26.26
2023-06-20T09:42:00,75s,26.98
2023-06-20T09:43:00,75s,26.51
2023-06-20T09:44:00,75s,26.52
2023-06-20T09:45:00,75s,26.42
2023-06-20T09:46:00,75s,26.74
2023-06-20T09:47:00,75s,26.73
2023-06-20T09:48:00,75s,26.69
2023-06-20T09:49:00,75s,26.86
2023-06-20T09:50:00,75s,26.98
2023-06-20T09:51:00,75s,27.39
2023-06-20T09:52:00,75s,27.19
2023-06-20T09:53:00,75s,26.91
2023-06-20T09:54:00,75s,26.69
2023-06-20T09:55:00,75s,26.79
2023-06-20T09:56:00,75s,23.83
2023-06-20T09:57:00,75s,21.58
2023-06-20T09:58:00,75s,20.78
2023-06-20T09:59:00,75s,20.74
2023-06-20T10:00:00,75s,20.88
2023-06-20T10:01:00,75s,20.89
2023-06-20T10:02:00,75s,20.88
2023-06-20T10:03:00,75s,20.84
2023-06-20T10:04:00,75s,21.02
2023-06-20T10:05:00,75s,21.45
2023-06-20T10:06:00,75s,21.00
2023-06-20T10:07:00,75s,21.24
2023-06-20T10:08:00,75s,22.11
2023-06-20T10:09:00,75s,23.69
2023-06-20T10:10:00,75s,25.45
2023-06-20T10:11:00,75s,26.95
2023-06-20T10:12:00,75s,27.15
2023-06-20T10:13:00,75s,27.03
2023-06-20T10:14:00,75s,27.01
2023-06-20T10:15:00,75s,27.66
2023-06-20T10:16:00,75s,27.04
2023-06-20T10:17:00,75s,26.76
2023-06-20T10:18:00,75s,26.89
2023-06-20T10:19:00,75s,26.93
2023-06-20T10:20:00,75s,26.75
2023-06-20T10:21:00,75s,26.76
2023-06-20T10:22:00,75s,26.73
2023-06-20T10:23:00,75s,26.80
2023-06-20T10:24:00,75s,26.73
2023-06-20T10:25:00,75s,27.13
2023-06-20T10:26:00,75s,26.60
2023-06-20T10:27:00,75s,26.67
2023-06-20T10:28:00,75s,26.64
2023-06-20T10:29:00,75s,26.63
2023-06-20T10:30:00,75s,26.50
2023-06-20T10:31:00,75s,26.73
2023-06-20T10:32:00,75s,26.62
2023-06-20T10:33:00,75s,26.68
2023-06-20T10:34:00,75s,26.65
2023-06-20T10:35:00,75s,26.48
2023-06-20T10:36:00,75s,26.58
2023-06-20T10:37:00,75s,26.76
2023-06-20T10:38:00,75s,26.56
2023-06-20T10:39:00,75s,26.50
2023-06-20T10:40:00,75s,26.57
2023-06-20T10:41:00,75s,26.37
2023-06-20T10:42:00,75s,26.31
2023-06-20T10:43:00,75s,26.52
2023-06-20T10:44:00,75s,26.62
2023-06-20T10:45:00,75s,26.19
2023-06-20T10:46:00,75s,24.77
2023-06-20T10:47:00,75s,24.75
2023-06-20T10:48:00,75s,24.83
2023-06-20T10:49:00,75s,23.95
2023-06-20T10:50:00,75s,22.03
2023-06-20T10:51:00,75s,20.95
2023-06-20T10:52:00,75s,21.05
2023-06-20T10:53:00,75s,20.93
2023-06-20T10:54:00,75s,21.13
2023-06-20T10:55:00,75s,21.05
2023-06-20T10:56:00,75s,21.40
2023-06-20T10:57:00,75s,21.01
2023-06-20T10:58:00,75s,20.89
2023-06-20T10:59:00,75s,21.02
2023-06-20T11:00:00,75s,20.98
2023-06-20T11:01:00,75s,21.44
2023-06-20T11:02:00,75s,23.38
2023-06-20T11:03:00,75s,25.27
2023-06-20T11:04:00,75s,27.20
2023-06-20T11:05:00,75s,28.13
2023-06-20T11:06:00,75s,28.28
2023-06-20T11:07:00,75s,28.06
2023-06-20T11:08:00,75s,27.94
2023-06-20T11:09:00,75s,27.62
2023-06-20T11:10:00,75s,27.56
2023-06-20T11:11:00,75s,27.47
2023-06-20T11:12:00,75s,27.48
2023-06-20T11:13:00,75s,27.73
2023-06-20T11:14:00,75s,27.72
2023-06-20T11:15:00,75s,28.20
2023-06-20T11:16:00,75s,27.86
2023-06-20T11:17:00,75s,28.27
2023-06-20T11:18:00,75s,28.38
2023-06-20T11:19:00,75s,28.28
2023-06-20T11:20:00,75s,27.92
2023-06-20T11:21:00,75s,27.94
2023-06-20T11:22:00,75s,27.93
2023-06-20T11:23:00,75s,27.77
2023-06-20T11:24:00,75s,27.84
2023-06-20T11:25:00,75s,27.75
2023-06-20T11:26:00,75s,27.78
2023-06-20T11:27:00,75s,28.36
2023-06-20T11:28:00,75s,28.13
2023-06-20T11:29:00,75s,28.20
2023-06-20T11:30:00,75s,27.84
2023-06-20T11:31:00,75s,28.13
2023-06-20T11:32:00,75s,28.29
2023-06-20T11:33:00,75s,28.22
2023-06-20T11:34:00,75s,27.77
2023-06-20T11:35:00,75s,27.86
2023-06-20T11:36:00,75s,27.75
2023-06-20T11:37:00,75s,27.79
2023-06-20T11:38:00,75s,28.35
2023-06-20T11:39:00,75s,28.27
2023-06-20T11:40:00,75s,28.55
2023-06-20T11:41:00,75s,28.38
2023-06-20T11:42:00,75s,28.02
2023-06-20T11:43:00,75s,27.96
2023-06-20T11:44:00,75s,28.22
2023-06-20T11:45:00,75s,28.12
2023-06-20T11:46:00,75s,28.38
2023-06-20T11:47:00,75s,28.44
2023-06-20T11:48:00,75s,28.11
2023-06-20T11:49:00,75s,27.92
2023-06-20T11:50:00,75s,27.93
2023-06-20T11:51:00,75s,37.20
2023-06-20T11:52:00,75s,37.20
2023-06-20T11:53:00,75s,37.38
2023-06-20T11:54:00,75s,36.89
2023-06-20T11:55:00,75s,36.75
2023-06-20T11:56:00,75s,36.63
2023-06-20T11:57:00,75s,28.19
2023-06-20T11:58:00,75s,28.48
2023-06-20T11:59:00,75s,28.45
2023-06-20T12:00:00,75s,28.43
2023-06-20T12:01:00,75s,28.33
2023-06-20T12:02:00,75s,28.23
2023-06-20T12:03:00,75s,28.90
2023-06-20T12:04:00,75s,28.47
2023-06-20T12:05:00,75s,28.36
2023-06-20T12:06:00,75s,28.48
2023-06-20T12:07:00,75s,28.75
2023-06-20T12:08:00,75s,28.42
2023-06-20T12:09:00,75s,28.44
2023-06-20T12:10:00,75s,28.72
2023-06-20T12:11:00,75s,28.57
2023-06-20T12:12:00,75s,28.41
2023-06-20T12:13:00,75s,28.47
2023-06-20T12:14:00,75s,28.57
2023-06-20T12:15:00,75s,28.54
2023-06-20T12:16:00,75s,28.49
2023-06-20T12:17:00,75s,28.55
2023-06-20T12:18:00,75s,28.38
2023-06-20T12:19:00,75s,28.28
2023-06-20T12:20:00,75s,27.92
2023-06-20T12:21:00,75s,27.91
2023-06-20T12:22:00,75s,27.94
2023-06-20T12:23:00,75s,28.17
2023-06-20T12:24:00,75s,28.13
2023-06-20T12:25:00,75s,28.05
2023-06-20T12:26:00,75s,28.22
2023-06-20T12:27:00,75s,28.22
2023-06-20T12:28:00,75s,28.18
2023-06-20T12:29:00,75s,28.06
2023-06-20T12:30:00,75s,28.29
2023-06-20T12:31:00,75s,28.26
2023-06-20T12:32:00,75s,28.75
2023-06-20T12:33:00,75s,28.77
2023-06-20T12:34:00,75s,30.13
2023-06-20T12:35:00,75s,28.63
2023-06-20T12:36:00,75s,28.46
2023-06-20T12:37:00,75s,28.55
2023-06-20T12:38:00,75s,28.60
2023-06-20T12:39:00,75s,28.60
2023-06-20T12:40:00,75s,28.76
2023-06-20T12:41:00,75s,28.67
2023-06-20T12:42:00,75s,28.78
2023-06-20T12:43:00,75s,28.66
2023-06-20T12:44:00,75s,28.85
2023-06-20T12:45:00,75s,28.51
2023-06-20T12:46:00,75s,28.76
2023-06-20T12:47:00,75s,28.70
2023-06-20T12:48:00,75s,28.84
2023-06-20T12:49:00,75s,28.67
2023-06-20T12:50:00,75s,28.66
2023-06-20T12:51:00,75s,28.40
2023-06-20T12:52:00,75s,28.02
2023-06-20T12:53:00,75s,28.02
2023-06-20T12:54:00,75s,28.36
2023-06-20T12:55:00,75s,28.83
2023-06-20T12:56:00,75s,28.69
2023-06-20T12:57:00,75s,28.67
2023-06-20T12:58:00,75s,28.70
2023-06-20T12:59:00,75s,28.73
2023-06-20T13:00:00,75s,28.65
2023-06-20T13:01:00,75s,28.31
2023-06-20T13:02:00,75s,27.85
2023-06-20T13:03:00,75s,28.16
2023-06-20T13:04:00,75s,28.30
2023-06-20T13:05:00,75s,28.36
2023-06-20T13:06:00,75s,28.55
2023-06-20T13:07:00,75s,28.72
2023-06-20T13:08:00,75s,28.93
2023-06-20T13:09:00,75s,28.98
2023-06-20T13:10:00,75s,28.75
2023-06-20T13:11:00,75s,28.81
2023-06-20T13:12:00,75s,28.51
2023-06-20T13:13:00,75s,28.57
2023-06-20T13:14:00,75s,28.86
2023-06-20T13:15:00,75s,28.82
2023-06-20T13:16:00,75s,28.76
2023-06-20T13:17:00,75s,28.45
2023-06-20T13:18:00,75s,29.21
2023-06-20T13:19:00,75s,28.84
2023-06-20T13:20:00,75s,28.91
2023-06-20T13:21:00,75s,28.68
2023-06-20T13:22:00,75s,28.42
2023-06-20T13:23:00,75s,28.36
2023-06-20T13:24:00,75s,28.40
2023-06-20T13:25:00,75s,28.58
2023-06-20T13:26:00,75s,28.63
2023-06-20T13:27:00,75s,28.67
2023-06-20T13:28:00,75s,28.86
2023-06-20T13:29:00,75s,28.86
2023-06-20T13:30:00,75s,28.92
2023-06-20T13:31:00,75s,28.93
2023-06-20T13:32:00,75s,28.79